Location: Bruck
(48.7364°N, 10.9425°E)
Time: 06:49:46
(UTC+00:00)

Daily predictions for brighter satellites

Satellite Brightness Start Highest point End
(mag) Time Altitude Azimuth Time Altitude Azimuth Time Altitude Azimuth
Cosmos 1607 4.1 19:50:33 10° SSW 19:56:31 50° ESE 20:02:28 10° NE
NOSS 2-1 (C) 4.3 19:53:11 10° NW 19:57:23 56° NE 20:03:13 10° ESE
Ariane Rocket 3.1 19:55:04 10° SSE 20:00:10 87° WSW 20:05:19 10° NNW
USA 267 4.2 19:55:12 10° ENE 20:00:17 23° SE 20:05:19 10° S
Cosmos 1954 Rocket 4.2 19:56:18 10° NNW 20:01:35 65° ENE 20:06:47 10° SSE
PSLV R/B 4.3 20:02:18 10° N 20:06:26 71° WNW 20:10:34 10° SSW
Cosmos 1980 Rocket 4.3 20:04:00 10° N 20:07:41 17° NE 20:11:21 10° ENE
NOSS 2-1 (D) 4.2 20:03:27 10° NW 20:07:45 65° NE 20:13:47 10° SE
S3M 4.3 20:03:00 10° SSW 20:09:10 72° W 20:15:19 10° N
Cosmos 1697 Rocket 4.2 20:06:12 10° NNW 20:10:55 26° NE 20:15:36 10° ESE
Meteor 2-10 Rocket 4.3 20:06:33 10° NNW 20:11:26 50° W 20:16:14 10° S
SPOT 5 3.1 20:07:43 10° SE 20:11:59 48° ENE 20:16:10 10° N
H-2A R/B 2.9 20:08:44 10° N 20:13:02 57° WNW 20:17:23 10° SSW
Tiangong 2.6 20:13:28 10° WSW 20:15:57 21° S 20:18:23 10° SE
Cosmos 1975 Rocket 3.2 20:11:59 10° S 20:16:27 86° WNW 20:20:54 10° N
CARTOSAT-1 3.7 20:13:37 10° S 20:17:56 80° WSW 20:22:17 10° NNW
IRAS Rocket 4.3 20:14:05 10° NNE 20:19:44 80° ESE 20:25:18 10° SSW
Cosmos 1656 4.1 20:15:49 10° NNW 20:21:10 51° NE 20:26:30 10° SE
Cosmos 2084 3.2 20:17:42 10° SSW 20:21:29 58° SE 20:25:17 10° NE
USA 276 2.4 20:26:38 10° SW 20:29:27 38° SSE 20:32:17 10° E
Spot 2 Rocket 3.5 20:25:59 10° SSE 20:31:03 78° ENE 20:36:11 10° NNW
ATLAS 2AS CENTAUR R/B 2.8 20:24:28 10° NW 20:31:39 81° SW 20:37:59 12° SSE
Cosmos 1544 Rocket 3.5 20:29:03 10° N 20:33:23 89° WNW 20:37:44 10° S
Meteor 1-24 Rocket 3.7 20:28:40 10° SSW 20:33:58 85° WNW 20:39:26 10° N
USA 234 3.9 20:29:47 10° E 20:36:10 56° NNE 20:42:33 10° NW
Lacrosse 5 1.9 20:31:15 10° WNW 20:36:22 74° SW 20:40:57 13° SE
Cosmos 1371 Rocket 4.3 20:31:14 10° SSW 20:36:28 75° WNW 20:41:48 10° NNE
Cosmos 1452 Rocket 4.1 20:32:23 10° S 20:37:11 37° ESE 20:42:00 10° NE
X-37B 1.1 20:36:51 10° SW 20:39:23 30° SSE 20:41:44 11° ESE
Cosmos 1833 Rocket 3.7 20:36:05 11° SSE 20:40:24 26° ESE 20:44:57 10° NE
Terra 1.9 20:38:02 12° SSE 20:42:24 67° ENE 20:47:09 10° N
FALCON 9 DEB 4.3 20:42:32 10° W 20:45:40 42° N 20:48:49 10° ENE
Cosmos 2184 Rocket 4.1 20:40:06 10° N 20:46:16 66° ENE 20:51:50 13° SSE
Resurs 01 Rocket 3.8 20:45:57 10° SW 20:49:22 21° W 20:52:47 10° NW
Cosmos 724 4.2 20:46:40 10° SSW 20:52:25 69° ESE 20:58:12 10° NE
CZ-4B R/B 4.0 20:53:10 10° NNW 20:55:14 18° WNW 20:57:18 10° WSW
Helios 1A Rocket 3.2 20:51:31 12° S 20:55:17 65° WSW 20:59:23 10° NNW
Lacrosse 5 rocket 2.6 20:55:59 10° WNW 20:59:18 27° SW 21:01:56 14° S
Cosmos 1271 Rocket 3.6 20:56:50 10° NNW 21:00:40 46° W 21:04:25 10° S
Cosmos 2082 Rocket 3.8 21:01:01 14° SE 21:03:22 17° E 21:06:57 10° ENE
NOSS 2-1 (E) 4.4 21:01:43 10° NW 21:06:18 59° SW 21:11:18 16° SSE
ERS-1 Rocket 3.4 21:03:41 12° S 21:08:19 60° W 21:13:20 10° NNW
RESURS DK-1 2.4 21:06:12 10° NNW 21:10:20 71° ENE 21:13:07 20° SE
Cosmos 2058 Rocket 4.4 21:11:20 10° NNE 21:15:07 27° ENE 21:17:48 16° ESE
CZ-2C R/B 3.8 21:11:48 10° NNE 21:16:26 77° WNW 21:20:56 10° SSW
ARIANE 5 R/B 2.8 21:18:10 17° S 21:21:31 70° WSW 21:25:58 10° NNW
Cosmos 1741 Rocket 4.1 21:16:44 10° NNW 21:22:04 80° WSW 21:25:51 20° SSE
Cosmos 968 Rocket 4.4 21:18:42 10° N 21:23:34 40° ENE 21:27:23 16° ESE
Cosmos 1825 4.4 21:24:12 11° E 21:25:15 12° E 21:26:41 10° ENE
Cosmos 2344 4.3 21:19:19 10° NW 21:28:01 78° NE 21:38:57 14° SE
SL-8 R/B 3.6 21:24:28 10° W 21:29:16 73° SSW 21:33:27 14° ESE
GP-B 3.7 21:27:19 10° NNE 21:31:33 42° E 21:33:53 23° SE
Cosmos 1455 4.3 21:28:44 10° NW 21:31:39 21° W 21:34:33 10° SW
Cosmos 2074 Rocket 4.5 21:28:36 10° NNW 21:34:44 57° W 21:40:08 13° SSW
ADEOS Rocket 4.4 21:33:32 13° ESE 21:39:20 40° ENE 21:46:20 10° N
ASTEX 1 3.5 21:34:44 10° NNE 21:39:43 62° E 21:42:46 23° SSE
COSMOS 2406 3.6 21:37:53 20° S 21:41:30 46° ESE 21:46:58 10° NE
USA 267 3.2 21:37:27 10° ENE 21:44:01 74° SE 21:50:34 10° SW
Cosmos 2369 4.0 21:38:31 10° NNW 21:44:14 64° ENE 21:48:09 21° SE
SL-16 R/B 4.1 21:40:43 10° N 21:45:08 23° NE 21:49:33 10° E
Cosmos 2228 3.8 21:45:19 10° NNW 21:49:20 43° W 21:52:05 18° SSW
Cosmos 962 Rocket 4.5 21:45:29 10° N 21:51:44 82° E 21:55:52 23° SSE
Nadezhda 1 Rocket 4.1 21:47:09 13° SSW 21:52:33 72° W 21:58:39 10° N
Cosmos 1980 Rocket 2.4 21:47:10 10° NNW 21:52:52 65° ENE 21:56:37 22° SE
Cosmos 1606 Rocket 3.8 21:50:12 10° NNW 21:54:28 59° W 21:56:56 24° SSW
Cosmos 1697 Rocket 2.8 21:49:48 10° NNW 21:55:24 68° WSW 21:58:44 25° S
Cosmos 1892 3.1 21:55:58 32° SE 21:57:13 45° E 22:00:50 10° NNE
SJ 16-02 3.9 21:55:46 10° NNE 21:58:08 14° NE 22:00:29 10° E
Cosmos 2084 Rocket 3.4 21:56:42 10° NW 22:00:34 70° NE 22:02:43 26° SE
Meteor 1-11 4.3 21:57:30 24° S 22:00:55 66° E 22:06:28 10° NNE
USA 276 2.1 22:02:02 10° W 22:05:03 74° N 22:08:03 10° ENE
Cosmos 1328 4.2 22:04:04 21° SSW 22:06:34 58° WNW 22:10:33 10° N
Cosmos 1331 Rocket 4.3 22:04:06 12° SSW 22:09:01 69° WNW 22:14:21 10° NNE
In-Cosmos 22 Rocket 4.5 22:06:28 26° SSE 22:09:24 52° E 22:14:43 10° NNE
X-37B 2.3 22:11:55 10° WSW 22:12:57 19° WSW 22:12:57 19° WSW
Cosmos 1408 2.3 22:15:25 40° SSW 22:16:35 86° WNW 22:20:02 10° N
Lacrosse 5 3.7 22:15:27 10° W 22:18:35 16° WSW 22:20:08 15° SW
USA 234 3.2 22:14:25 20° SE 22:19:06 70° SW 22:25:40 10° WNW
Cosmos 1726 Rocket 4.3 22:15:06 10° NNW 22:19:11 42° W 22:21:23 23° SSW
Terra 4.0 22:17:35 10° SW 22:20:38 17° W 22:23:43 10° NW
ATLAS 2AS CENTAUR R/B 4.4 22:16:54 10° WNW 22:21:26 19° WSW 22:25:25 11° SW
FALCON 9 DEB 4.3 22:19:13 10° WNW 22:22:22 41° N 22:25:29 10° E
Cosmos 1833 Rocket 3.2 22:18:25 10° SW 22:23:56 58° WNW 22:29:30 10° NNE
Cosmos 2322 Rocket 3.8 22:19:37 10° NNW 22:24:32 29° NE 22:29:27 10° ESE
Cosmos 1867 3.6 22:22:33 10° NW 22:28:04 85° NE 22:31:17 26° SE
Cosmos 2278 3.8 22:23:14 10° NNW 22:28:59 74° ENE 22:32:24 25° SE
SL-8 Rocket 4.0 22:23:52 10° NNW 22:30:08 75° W 22:33:46 26° S
ATLAS 5 CENTAUR R/B 2.7 22:30:25 22° ESE 22:30:25 22° ESE 22:33:19 10° ENE
Cosmos 1812 Rocket 4.2 22:28:08 10° N 22:32:28 46° ENE 22:34:25 28° SE
ALOS 2 2.6 22:32:45 34° SSE 22:34:37 81° ENE 22:39:02 10° NNW
Cosmos 1302 Rocket 4.0 22:31:55 22° SSW 22:35:19 81° WNW 22:40:33 10° NNE
Cosmos 2218 Rocket 4.1 22:35:49 10° NNW 22:42:12 73° W 22:45:53 27° S
Cosmos 2366 rocket 4.2 22:39:41 10° NNW 22:45:58 69° W 22:49:35 27° S
Aureole 1 Rocket 4.5 22:39:30 10° NNW 22:46:23 78° ENE 22:51:53 23° SSE
Cosmos 2082 Rocket 2.2 22:42:49 21° SSW 22:46:42 85° WNW 22:52:27 10° NNE
Cosmos 1602 Rocket 3.7 22:45:32 36° SSE 22:47:01 57° E 22:51:15 10° NNE
H-2A R/B 3.4 22:45:17 10° NNE 22:49:30 90° WNW 22:51:09 37° SSW
Cosmos 2058 Rocket 4.2 22:49:11 10° NNW 22:53:09 33° W 22:55:04 23° SW
Cosmos 1825 2.5 22:58:50 37° SW 23:00:04 59° WNW 23:03:48 10° N
Cosmos 2360 Rocket 3.5 22:58:58 10° NNW 23:04:12 36° NE 23:09:23 10° ESE
ERS-2 2.1 23:01:33 10° NNE 23:05:08 66° ESE 23:05:53 50° SSE
Cosmos-2242 2.9 23:02:30 10° N 23:06:47 80° E 23:08:16 40° SSE
Cosmos 1626 Rocket 4.0 23:10:22 30° SW 23:12:15 54° WNW 23:16:31 10° N
Cosmos 1869 4.3 23:12:32 10° NNW 23:16:03 34° W 23:17:08 28° SW
Cosmos 1606 2.7 23:13:19 10° N 23:17:11 73° E 23:18:18 43° SSE
Cosmos 2058 3.5 23:16:21 34° SE 23:17:40 46° E 23:21:42 10° NNE
BREEZE-M DEB (TANK) 4.1 23:14:29 10° W 23:18:12 83° SSW 23:34:30 10° ESE
Cosmos 1934 Rocket 4.3 23:12:41 10° N 23:18:41 58° ENE 23:22:23 24° SSE
Cosmos 1825 Rocket 3.7 23:22:58 38° SSE 23:24:26 61° E 23:28:43 10° NNE
ADEOS Rocket 3.8 23:20:28 26° SSW 23:24:33 54° W 23:32:02 10° NNW
Cosmos 1633 2.8 23:25:15 42° SW 23:26:05 55° WNW 23:29:32 10° N
USA 267 4.0 23:20:35 10° ENE 23:26:55 55° NNW 23:33:16 10° W
CRYOSAT 2 4.5 23:25:28 32° SSE 23:27:43 70° E 23:32:36 10° N
SL-16 R/B 2.1 23:24:17 10° NNW 23:30:00 85° WSW 23:33:07 28° SSE
Cosmos 1980 Rocket 3.6 23:31:59 10° NW 23:36:22 23° WSW 23:38:21 19° SW
SJ 16-02 1.3 23:32:55 10° NNW 23:37:23 89° ENE 23:39:13 35° SSE
USA 276 2.0 23:37:50 10° WNW 23:40:51 79° NNE 23:43:52 10° E
Meteor 2-2 Rocket 4.4 23:36:30 10° NNW 23:42:32 89° E 23:45:55 28° S
Cosmos 1821 Rocket 4.4 23:36:38 10° NNW 23:42:42 53° W 23:45:54 27° SSW
Cosmos 2219 Rocket 3.7 23:39:26 10° NNW 23:44:34 33° NE 23:49:40 10° ESE
Cosmos 1340 Rocket 2.9 23:48:44 41° SSE 23:49:55 65° E 23:53:51 10° NNE
CZ-2D R/B 4.0 23:46:36 10° NE 23:50:19 19° E 23:53:35 12° SE
